Regional Weather Roundup
Issued by NWS

Home | Current Version | Previous Version | Text Only | Print | Product List | Glossary Off
Versions: 1 2 3 4 5 6 7 8 9 10 11 12 13 14 15 16 17 18 19 20 21 22 23 24 25 26 27 28 29 30 31 32 33 34 35 36 37 38 39 40 41 42 43 44 45 46 47 48 49 50

000
ASUS45 KPSR 220500
RWRAZ

PRELIMINARY ARIZONA REGIONAL HOURLY WEATHER ROUNDUP
NATIONAL WEATHER SERVICE PHOENIX AZ
1000 PM MST FRI NOV 21 2014

NOTE: FAIR INDICATES FEW OR NO CLOUDS BELOW 12,000 FEET WITH NO
SIGNIFICANT WEATHER AND/OR OBSTRUCTIONS TO VISIBILITY.

AZZ001>003-036-220600-
NORTHWEST ARIZONA

CITY           SKY/WX    TMP DP  RH WIND       PRES   REMARKS
KINGMAN        CLEAR     42  18  37 SE10      30.05R
$$

AZZ004>008-015-016-018-220600-
NORTH CENTRAL ARIZONA

CITY           SKY/WX    TMP DP  RH WIND       PRES   REMARKS
GRAND CANYON   CLEAR     21  11  65 CALM      30.13R
PRESCOTT       CLEAR     36  21  54 S5        30.07R WCI  32
FLAGSTAFF      NOT AVBL
PAYSON         CLEAR     41  19  42 N3        30.08S
$$

AZZ009>014-017-220600-
NORTHEAST ARIZONA

CITY           SKY/WX    TMP DP  RH WIND       PRES   REMARKS
WINSLOW        NOT AVBL
SAINT JOHNS    CLEAR     31  21  66 CALM      30.08R
SHOW LOW       CLEAR     28  14  54 CALM      30.11S
$$

AZZ023-220600-
GREATER PHOENIX AREA

CITY           SKY/WX    TMP DP  RH WIND       PRES   REMARKS
PHOENIX        CLEAR     60  31  33 W3        29.95R
BUCKEYE          N/A     52  28  40 N9        29.97S
DEER VALLEY    CLEAR     51  22  31 CALM      29.96R
SCOTTSDALE     CLEAR     52  26  36 NW5       29.98R
MESA-GATEWAY   MOCLDY    48  30  49 SW7       29.99R
$$

AZZ027-028-220600-
SOUTHWEST MARICOPA COUNTY AND PINAL COUNTY

CITY           SKY/WX    TMP DP  RH WIND       PRES   REMARKS
CASA GRANDE    CLEAR     52  21  30 CALM      29.99R
$$

AZZ503-504-507>509-220600-
SOUTHEAST ARIZONA

CITY           SKY/WX    TMP DP  RH WIND       PRES   REMARKS
TUCSON         PTCLDY    54  39  57 S10       30.02R
DAVIS-MONTHAN  CLEAR     52  39  62 S9        30.00S
NOGALES        CLOUDY    46  41  82 NE12      30.01F
SIERRA VISTA   PTCLDY    46  32  57 W14       30.03R
SAFFORD        PTCLDY    47  21  35 N8        29.98S
$$

AZZ020-021-025-026-031-220600-
SOUTHWEST ARIZONA

CITY           SKY/WX    TMP DP  RH WIND       PRES   REMARKS
YUMA           PTCLDY    59  41  51 S3        29.97R
$$

CAZ031-033-041-043-047-048-061-220600-
SOUTHERN CALIFORNIA

CITY           SKY/WX    TMP DP  RH WIND       PRES   REMARKS
DOWNTOWN L.A.  CLEAR     61  51  70 CALM      30.03R
L.A. AIRPORT   PTCLDY    64  47  53 N9        30.03R
SAN DIEGO      CLEAR     63  52  67 CALM      30.06R
BURBANK        CLEAR     60  41  49 N7        30.04R
ONTARIO        CLEAR     59  47  64 CALM      30.04R
RIVERSIDE      CLEAR     57  49  74 E3        30.05R
PALM SPRINGS   CLEAR     59  41  51 W6        30.01R
EL CENTRO NAS  CLEAR     60  47  61 W6        29.97R
IMPERIAL       CLEAR     58  44  60 SW5       29.97R
BLYTHE         CLEAR     57  29  34 NW6       29.97R
$$

NVZ020-UTZ003-220600-
SOUTHERN NEVADA-UTAH

CITY           SKY/WX    TMP DP  RH WIND       PRES   REMARKS
LAS VEGAS      NOT AVBL
SALT LAKE CITY MOCLDY    35  26  69 SE9       29.98F WCI  28
$$

NMZ009-TXZ055-220600-
NEW MEXICO-WEST TEXAS

CITY           SKY/WX    TMP DP  RH WIND       PRES   REMARKS
ALBUQUERQUE    PTCLDY    42  20  41 NE3       30.08R
EL PASO        CLOUDY    58  23  26 N8        29.98R
$$


........................KEY........................
SKY/WX - SKY CONDITION/WEATHER
TMP    - TEMPERATURE IN FAHRENHEIT
DP     - DEW POINT IN FAHRENHEIT
RH     - RELATIVE HUMIDITY IN PERCENT
WIND   - DIRECTION AND SPEED IN MILES PER HOUR (MPH)
VRB    - VARIABLE WIND DIRECTION
PRES   - MEAN SEA LEVEL PRESSURE IN INCHES OF MERCURY
         F - FALLING PRESSURE   R - RISING PRESSURE
         S - STEADY PRESSURE
VSB    - VISIBILITY IN MILES
HX     - HEAT INDEX IN FAHRENHEIT
WCI    - WIND CHILL INDEX IN FAHRENHEIT
TC     - TEMPERATURE IN CELSIUS WHICH IS ALSO KNOWN AS
         TEMPERATURE IN CENTIGRADE
AFB    - AIR FORCE BASE
         LUKE AFB IS LUKE AIR FORCE BASE
         DAVIS-MONTHAN IS DAVIS-MONTHAN AIR FORCE BASE
NAS    - NAVAL AIR STATION
         EL CENTRO NAS IS EL CENTRO NAVAL AIR STATION
N/A    - NOT AVAILABLE


USA.gov is the U.S. government's official web portal to all federal, state and local government web resources and services.